| time (UTC) | temp F | wind direction | speed knots | gust knots | rain 1hr in | rain 24hr in | rain mn in | humidity % | barometer mb |
| 20260505003010 | 60 | 360 | 0.9 | 0.0 | 0.00 | 0.00 | 0.00 | 74 | 1009.3 |
| 20260505001510 | 60 | 360 | 0.9 | 0.0 | 0.00 | 0.00 | 0.00 | 75 | 1009.2 |
| 20260505000013 | 60 | 160 | 2.6 | 0.0 | 0.00 | 0.00 | 0.00 | 75 | 1009.1 |
| 20260504234507 | 60 | 360 | 6.1 | 0.0 | 0.00 | 0.00 | 0.00 | 76 | 1009.3 |
| 20260504233005 | 60 | 171 | 7.0 | 0.0 | 0.00 | 0.00 | 0.00 | 79 | 1008.8 |
| 20260504231549 | 62 | 360 | 4.3 | 0.0 | 0.00 | 0.00 | 0.00 | 78 | 1008.8 |
| 20260504230047 | 63 | 360 | 1.7 | 0.0 | 0.00 | 0.00 | 0.00 | 80 | 1008.4 |
| 20260504224545 | 63 | 360 | 0.0 | 0.0 | 0.00 | 0.00 | 0.00 | 82 | 1008.7 |
| 20260504223047 | 63 | 360 | 0.0 | 0.0 | 0.00 | 0.00 | 0.00 | 82 | 1008.8 |
| 20260504221544 | 64 | 360 | 0.0 | 0.0 | 0.00 | 0.00 | 0.00 | 83 | 1009.0 |
| 20260504220043 | 64 | 360 | 0.9 | 0.0 | 0.00 | 0.00 | 0.00 | 84 | 1009.1 |
| 20260504214542 | 65 | 360 | 0.0 | 0.0 | 0.00 | 0.00 | 0.00 | 85 | 1009.0 |
| 20260504213042 | 64 | 360 | 0.0 | 0.0 | 0.00 | 0.00 | 0.00 | 85 | 1009.3 |
| 20260504211528 | 64 | 360 | 0.0 | 0.0 | 0.00 | 0.00 | 0.00 | 86 | 1009.4 |
| 20260504210030 | 64 | 360 | 0.0 | 0.0 | 0.00 | 0.00 | 0.00 | 86 | 1009.3 |
| 20260504204528 | 64 | 360 | 0.0 | 0.0 | 0.00 | 0.00 | 0.00 | 86 | 1009.3 |
| 20260504203028 | 64 | 360 | 0.0 | 0.0 | 0.00 | 0.00 | 0.00 | 86 | 1009.2 |
| 20260504201526 | 64 | 360 | 0.0 | 0.0 | 0.00 | 0.00 | 0.00 | 86 | 1009.1 |
| 20260504200028 | 64 | 360 | 0.0 | 0.0 | 0.00 | 0.00 | 0.00 | 85 | 1009.0 |
| 20260504194527 | 64 | 360 | 0.0 | 0.0 | 0.00 | 0.00 | 0.00 | 85 | 1008.9 |
| 20260504193020 | 64 | 360 | 0.0 | 0.0 | 0.00 | 0.00 | 0.00 | 85 | 1008.4 |
| 20260504191508 | 64 | 360 | 0.0 | 0.0 | 0.00 | 0.00 | 0.00 | 85 | 1007.9 |
| 20260504190006 | 65 | 360 | 0.9 | 0.0 | 0.00 | 0.00 | 0.00 | 85 | 1007.8 |
| 20260504184505 | 65 | 360 | 0.9 | 0.0 | 0.00 | 0.00 | 0.00 | 84 | 1007.7 |
| 20260504183005 | 65 | 360 | 0.9 | 0.0 | 0.00 | 0.00 | 0.00 | 84 | 1007.7 |
| 20260504181503 | 65 | 360 | 1.7 | 0.0 | 0.00 | 0.00 | 0.00 | 83 | 1007.8 |
| 20260504180101 | 66 | 360 | 3.5 | 0.0 | 0.00 | 0.00 | 0.00 | 82 | 1007.8 |
| 20260504180000 | 66 | 360 | 3.5 | 0.0 | 0.00 | 0.00 | 0.00 | 82 | 1007.9 |
| 20260504174559 | 66 | 360 | 1.7 | 0.0 | 0.00 | 0.00 | 0.00 | 82 | 1007.7 |
| 20260504173057 | 66 | 360 | 0.9 | 0.0 | 0.00 | 0.00 | 0.00 | 82 | 1007.9 |
| 20260504171550 | 66 | 360 | 0.0 | 0.0 | 0.00 | 0.00 | 0.00 | 83 | 1008.0 |
| 20260504081519 | 68 | 243 | 1.7 | 0.0 | 0.00 | 0.00 | 0.00 | 77 | 1009.7 |
| 20260504044531 | 62 | 273 | 0.0 | 0.0 | 0.00 | 0.00 | 0.00 | 86 | 1009.9 |
| 20260504043042 | 62 | 273 | 0.9 | 0.0 | 0.00 | 0.00 | 0.00 | 86 | 1010.0 |
| 20260504041534 | 62 | 271 | 0.9 | 0.0 | 0.00 | 0.00 | 0.00 | 86 | 1010.1 |
| 20260504040027 | 62 | 273 | 0.0 | 0.0 | 0.00 | 0.00 | 0.00 | 86 | 1010.2 |
| 20260504034526 | 62 | 272 | 0.0 | 0.0 | 0.00 | 0.00 | 0.00 | 87 | 1010.4 |
| 20260504033028 | 62 | 274 | 0.0 | 0.0 | 0.00 | 0.00 | 0.00 | 87 | 1010.5 |
| 20260504031523 | 62 | 274 | 0.0 | 0.0 | 0.00 | 0.00 | 0.00 | 87 | 1010.6 |
| 20260504030021 | 62 | 274 | 0.0 | 0.0 | 0.00 | 0.00 | 0.00 | 87 | 1010.6 |
| 20260504024521 | 62 | 275 | 0.0 | 0.0 | 0.00 | 0.00 | 0.00 | 87 | 1010.8 |
| 20260504023008 | 62 | 275 | 0.0 | 0.0 | 0.00 | 0.00 | 0.00 | 87 | 1010.7 |
| 20260504021508 | 62 | 275 | 0.0 | 0.0 | 0.00 | 0.00 | 0.00 | 87 | 1011.1 |
| 20260504020007 | 62 | 275 | 0.0 | 0.0 | 0.00 | 0.00 | 0.00 | 87 | 1011.2 |
| 20260504014506 | 62 | 276 | 0.0 | 0.0 | 0.00 | 0.00 | 0.00 | 87 | 1011.1 |
| 20260504013005 | 62 | 276 | 0.0 | 0.0 | 0.00 | 0.00 | 0.00 | 87 | 1011.2 |
| 20260504011513 | 62 | 276 | 0.0 | 0.0 | 0.00 | 0.00 | 0.00 | 87 | 1011.2 |
| 20260504010004 | 62 | 275 | 0.0 | 0.0 | 0.00 | 0.00 | 0.00 | 87 | 1011.4 |